sat.trackr.live / text

‹ back to catalog

STARLINK-11105 [DTC]

NORAD 59758 · 2024-091F

PAYLOAD ACTIVE UNKNOWN

§ Identity

Operator
Country
US
Launch date
2024-05-14
Launch site
AFWTR
Launch vehicle
Mass (kg)
RCS (m²)

Purposes: comms

External: N2YO · Heavens-Above · Gunter

§ Orbital elements

Epoch: 2026-05-24T12:37:21.453600Z

Period
91.74 min
Inclination
53.1595°
Eccentricity
0.0000695
Mean motion
15.69721965 rev/d
Perigee alt
359.2 km
Apogee alt
360.2 km
Semi-major
6,737.8 km
B*
-1.2249e-5
RAAN
192.4824°
Arg perigee
74.4996°
Mean anomaly
285.6099°
Rev number
11,742

§ Raw data

STARLINK-11105 [DTC]1 59758U 24091F   26144.52594275 -.00002072  00000+0 -12249-4 0  99902 59758  53.1595 192.4824 0000695  74.4996 285.6099 15.69721965117428

JSON: /api/v1/satellites/59758 · /tle

For live sub-satellite position, see the globe view (requires WebGL).

§ Visibility from observer

Set your observer location to see the next 7 days of passes ≥ 10°. The values pass through the URL so the page stays shareable.

No JS? Fill the form by hand. The geolocation button needs JavaScript.